TimeCST,TemperatureF,Dew PointF,Humidity,Sea Level PressureIn,VisibilityMPH,Wind Direction,Wind SpeedMPH,Gust SpeedMPH,PrecipitationIn,Events,Conditions,WindDirDegrees,DateUTC
12:54 AM,35.1,32.0,89,29.93,10.0,Calm,Calm,-,N/A,,Clear,0,2013-02-27 06:54:00
1:54 AM,35.1,33.1,92,29.93,10.0,Calm,Calm,-,N/A,,Clear,0,2013-02-27 07:54:00
2:54 AM,36.0,33.1,89,29.94,9.0,Calm,Calm,-,N/A,,Clear,0,2013-02-27 08:54:00
4:54 AM,33.1,30.0,89,29.94,8.0,Calm,Calm,-,N/A,,Clear,0,2013-02-27 10:54:00
5:54 AM,33.8,30.2,87,29.93,8.0,Calm,Calm,-,N/A,,Clear,0,2013-02-27 11:54:00
6:54 AM,32.0,30.0,92,29.95,8.0,Calm,Calm,-,N/A,,Clear,0,2013-02-27 12:54:00
7:54 AM,39.9,36.0,86,29.97,9.0,Calm,Calm,-,N/A,,Clear,0,2013-02-27 13:54:00
8:54 AM,46.4,35.6,66,29.99,10.0,Calm,Calm,-,N/A,,Clear,0,2013-02-27 14:54:00
9:54 AM,50.0,37.0,61,30.00,10.0,Calm,Calm,-,N/A,,Clear,0,2013-02-27 15:54:00
10:54 AM,55.0,37.0,51,30.01,10.0,Variable,5.8,-,N/A,,Clear,0,2013-02-27 16:54:00
11:54 AM,57.9,35.1,42,30.01,10.0,West,13.8,21.9,N/A,,Clear,270,2013-02-27 17:54:00
12:54 PM,59.0,35.1,41,29.97,10.0,Variable,3.5,-,N/A,,Partly Cloudy,0,2013-02-27 18:54:00
1:54 PM,61.0,36.0,39,29.95,10.0,West,13.8,19.6,N/A,,Partly Cloudy,280,2013-02-27 19:54:00
2:54 PM,61.0,34.0,36,29.95,10.0,WNW,10.4,20.7,N/A,,Partly Cloudy,290,2013-02-27 20:54:00
3:54 PM,60.1,34.0,38,29.95,10.0,West,11.5,21.9,N/A,,Partly Cloudy,260,2013-02-27 21:54:00
4:54 PM,57.9,34.0,41,29.97,10.0,WNW,9.2,18.4,N/A,,Scattered Clouds,300,2013-02-27 22:54:00
5:54 PM,55.0,36.0,49,29.97,10.0,WNW,8.1,-,N/A,,Mostly Cloudy,300,2013-02-27 23:54:00
6:54 PM,51.1,36.0,56,29.99,10.0,Calm,Calm,-,N/A,,Partly Cloudy,0,2013-02-28 00:54:00
7:54 PM,44.6,37.4,76,29.99,10.0,Calm,Calm,-,N/A,,Partly Cloudy,0,2013-02-28 01:54:00
8:54 PM,50.0,37.0,61,30.01,10.0,NW,6.9,-,N/A,,Partly Cloudy,310,2013-02-28 02:54:00
9:54 PM,48.9,35.1,59,30.02,10.0,NW,4.6,-,N/A,,Partly Cloudy,320,2013-02-28 03:54:00
10:54 PM,45.0,35.1,68,30.03,10.0,NW,4.6,-,N/A,,Clear,320,2013-02-28 04:54:00
11:54 PM,44.6,35.6,71,30.05,10.0,NNW,8.1,-,N/A,,Clear,330,2013-02-28 05:54:00